Location: Ford County Road and Bridge Department
(37.7686°N, 99.9762°W)
Time: 06:51:15
(UTC+00:00)

Cosmos 2082 - Pass Details

Date: 18 January 2020
Orbit: 833 x 856 km, 71.0° (Epoch: 17 February)

Event Time Altitude Azimuth Distance (km) Brightness Sun altitude
Rises 01:53:29 0° 191° (S) 3,362 7.1 -24.7°
Reaches altitude 10° 01:55:56 10° 188° (S) 2,432 6.2 -25.2°
Enters shadow 02:00:30 54° 151° (SSE) 1,008 3.9 -26.1°
